Temp
24 22 21 20 19 19 19 20 20 20 19 19 19 19 19 19 18 18 18 18 19 19 19 18 18 19 18 18 18 18 18 18 18 18 18 18 18 18 18 18 18 18 17
24 22 21 20 19 19 19 20 20 20 20 19 19 19 18 18 18 18 18 18 19 19 19 19 19 19 18 17 18 18 18 18 19 19 19 18 18 18 18 19 18 17 17
24 22 21 20 20 20 19 20 20 20 20 19 19 19 18 18 18 19 19 19 18 19 18 18 18 18 18 17 17 18 19 19 19 19 19 19 18 18 18 18 18 17 17
24 23 21 21 20 20 20 20 20 20 20 20 19 19 19 18 19 18 19 18 18 19 18 18 17 17 17 17 17 18 19 19 19 19 19 19 18 18 17 17 17 17 17
24 24 22 21 21 20 20 20 20 20 20 20 19 19 19 19 19 18 18 18 18 18 18 17 17 17 17 17 17 18 19 19 20 20 19 19 18 17 17 17 16 16 16
22 23 24 22 21 20 20 20 20 20 20 19 19 19 19 19 19 18 17 18 18 18 17 16 17 17 17 17 18 18 19 19 18 20 19 18 17 17 16 16 16 16 16
21 22 22 22 21 21 20 20 20 20 20 19 19 19 19 19 19 17 17 17 17 17 16 16 16 17 17 17 17 19 19 19 18 19 18 18 17 16 16 16 16 16 15
20 21 22 21 22 21 20 20 20 19 19 19 19 19 19 19 18 17 16 17 16 16 16 16 16 16 16 17 18 18 18 17 17 17 16 16 16 16 15 15 15 15 15
19 20 20 21 21 21 21 20 19 19 19 18 18 19 19 19 17 16 15 15 16 16 16 16 16 16 16 17 18 18 18 17 17 16 16 15 15 15 15 15 15 15 15
19 19 19 20 19 20 20 20 19 19 19 18 18 19 19 18 17 16 15 15 16 16 16 16 16 16 16 17 17 18 17 17 16 16 15 15 15 15 15 15 15 15 15
19 18 17 18 18 18 19 20 19 19 19 18 18 18 18 16 15 15 15 15 16 16 16 16 16 16 16 17 17 17 16 16 16 16 15 15 15 15 15 15 15 15 15
19 17 16 16 17 17 18 18 19 18 18 18 18 18 16 16 15 15 15 15 16 17 17 16 16 15 16 17 17 17 17 17 17 17 16 15 15 14 15 14 14 15 15
19 17 16 15 15 16 17 15 18 17 18 17 17 17 16 16 16 16 15 16 16 17 17 16 16 15 16 17 17 18 18 17 16 16 15 14 14 14 14 14 14 14 15
18 16 15 14 14 15 16 14 17 17 17 16 17 17 17 17 16 15 15 15 16 17 17 17 16 16 17 17 18 18 18 16 15 15 14 14 14 14 14 14 14 14 14
17 15 15 13 13 14 14 15 12 15 16 16 16 17 18 17 16 15 15 15 16 17 16 17 17 17 17 17 18 18 18 16 15 14 14 14 14 14 14 14 14 14 13
17 16 14 12 12 13 14 14 11 13 13 16 16 17 18 17 16 16 16 16 16 17 16 17 16 17 17 17 17 17 17 16 15 14 14 14 14 14 14 14 13 13 13
17 16 14 12 11 11 13 13 13 13 12 16 17 18 18 17 17 17 16 16 16 16 16 17 17 17 17 17 17 17 17 16 15 14 13 13 13 13 13 14 13 13 13
17 15 13 12 11 11 12 12 13 13 12 15 17 17 18 17 17 17 17 17 17 17 17 17 17 17 17 16 16 16 16 15 15 14 13 13 13 13 12 12 12 12 12
16 14 13 11 11 10 11 11 12 12 13 13 15 16 17 17 17 17 17 17 17 17 17 17 16 16 16 16 15 15 15 15 15 14 13 13 13 12 12 12 12 12 12
15 13 12 11 10 10 10 11 11 13 12 10 14 14 15 16 16 16 16 16 16 16 16 16 16 15 15 15 14 14 14 14 14 14 14 13 13 12 12 12 12 12 11
14 13 12 11 10 10 9 9 10 12 12 10 12 12 14 15 15 15 16 16 15 15 15 15 15 15 14 14 13 13 13 14 14 14 13 13 13 12 12 12 12 12 12
13 12 11 11 10 10 10 9 9 12 10 10 11 13 12 14 15 15 15 15 15 15 15 15 14 14 14 13 12 12 10 12 13 13 13 13 13 12 12 12 12 12 12
11 11 11 11 10 10 10 10 8 7 8 8 9 11 13 14 14 14 14 14 14 14 14 14 14 13 12 13 13 14 10 10 11 13 13 13 13 12 12 12 12 11 11
11 11 11 10 10 10 10 10 8 8 8 8 9 10 10 13 13 13 13 13 14 14 14 14 13 13 12 12 13 13 13 13 10 9 13 13 13 12 12 12 12 11 11
11 11 11 10 10 10 9 10 9 8 8 8 9 11 11 12 13 13 13 13 13 14 14 13 13 13 13 13 13 13 13 13 14 11 9 11 12 12 12 12 12 11 11
13 11 10 10 10 9 9 9 9 8 8 8 8 9 10 12 12 12 12 12 13 13 13 13 13 13 13 13 13 13 13 13 13 13 10 10 11 12 12 12 11 11 11
Height
762 761 764 769 771 772 774 776 778 780 783 786 789 790 792 794 797 799 801 804 806 808 811 813 814 816 817 818 819 821 822 823 824 825 827 828 828 829 829 829 829 830 831
764 762 764 769 772 773 775 777 779 781 784 787 790 792 794 795 798 800 803 805 808 810 812 814 816 818 819 820 821 822 824 825 826 828 829 829 829 830 830 831 831 832 833
765 762 764 768 772 774 775 777 780 782 784 787 790 793 795 797 798 801 803 806 808 811 813 815 817 818 820 821 823 824 826 827 828 829 830 830 831 831 832 833 833 834 835
764 764 763 767 771 775 777 778 780 782 785 787 790 793 796 798 799 801 803 806 809 811 813 815 817 819 821 823 824 826 827 828 829 831 832 832 833 834 834 835 836 837 838
765 765 763 766 770 773 776 779 780 782 785 787 789 792 794 797 799 801 804 806 809 812 814 815 817 819 822 824 826 827 829 830 831 832 833 834 836 837 837 838 839 840 841
765 765 764 763 766 771 774 777 779 781 784 786 789 791 793 796 799 802 804 806 808 811 813 815 817 819 822 824 827 829 831 832 833 834 834 836 838 839 840 840 841 842 843
767 765 764 762 764 768 772 775 778 779 782 784 787 790 793 796 799 802 804 806 808 810 813 815 817 820 822 825 827 830 832 833 834 833 835 838 841 842 842 843 843 844 845
766 764 765 764 763 765 769 773 776 779 781 783 786 789 791 795 799 803 804 805 808 810 813 815 817 820 823 825 828 831 832 834 834 835 837 840 842 844 844 844 845 846 847
764 764 762 761 763 763 765 770 773 775 779 782 785 788 791 795 799 803 805 806 809 811 814 816 818 821 824 826 829 831 833 834 834 837 840 843 844 845 845 846 847 848 849
762 762 761 761 762 763 764 767 771 773 776 780 783 786 790 795 798 802 805 807 810 811 814 816 819 821 824 827 830 833 833 834 836 838 841 843 845 846 848 849 849 850 851
759 759 760 759 760 760 762 763 767 772 775 778 781 784 789 794 797 801 804 807 810 811 814 817 819 822 824 827 831 834 834 835 837 840 842 844 847 849 850 850 851 852 853
756 756 757 758 756 757 757 762 765 768 772 775 778 781 787 792 796 799 803 806 810 812 815 818 820 822 824 828 831 834 835 836 838 841 844 848 849 850 851 852 852 853 855
753 753 754 756 755 753 755 757 762 764 767 771 774 778 784 790 794 797 801 805 809 812 815 818 821 823 825 828 831 834 836 836 838 842 847 849 850 851 853 853 854 855 857
747 750 752 753 753 753 753 755 757 761 762 766 770 774 780 785 791 794 799 803 807 811 814 817 821 823 827 829 831 834 837 837 840 844 848 850 852 853 854 856 856 857 859
743 746 749 750 750 750 750 751 747 756 755 759 765 770 774 780 785 792 797 801 806 810 814 817 820 823 827 829 832 834 836 837 839 844 848 851 853 855 856 857 858 859 860
739 743 745 747 748 747 746 743 749 758 758 756 760 764 768 776 780 788 794 799 804 808 813 817 820 822 827 830 832 835 837 838 840 845 848 851 854 855 857 859 860 861 862
735 739 741 744 745 744 745 743 736 745 744 742 757 760 762 771 776 784 790 796 801 806 811 816 818 823 826 829 832 835 838 840 841 845 849 851 854 856 858 860 861 862 863
731 733 737 741 742 738 738 738 738 750 746 743 750 758 759 767 772 781 787 793 797 804 809 814 817 821 825 828 832 835 838 842 843 845 849 851 853 855 858 860 862 863 864
727 730 733 737 738 737 734 732 735 750 752 738 747 757 762 764 770 777 784 790 795 801 807 812 816 820 824 827 831 836 839 842 845 847 849 851 854 856 858 860 862 863 865
726 729 732 736 736 738 740 735 726 737 752 745 750 754 763 764 770 776 782 788 793 798 805 810 815 820 824 827 831 837 841 843 846 848 850 852 854 855 858 860 862 863 864
726 728 730 735 736 738 740 740 735 738 747 755 750 757 763 770 772 777 781 786 790 796 802 809 814 818 824 828 833 839 843 845 846 847 849 851 853 855 856 858 860 861 863
724 728 729 732 734 736 734 732 734 730 742 757 755 756 764 774 775 778 781 785 789 795 801 806 811 817 823 827 831 836 844 846 845 847 848 850 852 854 856 858 860 861 863
725 727 729 730 730 733 734 738 738 741 744 753 756 764 768 772 778 779 780 785 790 795 799 804 809 813 819 826 829 829 838 841 843 846 847 849 851 853 855 858 860 862 862
725 725 726 727 727 730 734 734 736 738 742 751 757 756 767 771 777 777 779 787 791 795 799 803 807 811 815 820 826 825 826 829 837 845 845 848 850 852 854 856 858 860 861
721 722 722 723 724 726 729 730 737 731 739 751 756 759 767 772 775 774 779 788 791 794 798 800 806 810 813 817 821 824 826 827 829 834 842 844 848 850 853 854 856 857 859
720 721 721 722 725 727 729 733 735 740 747 753 760 761 765 767 772 776 779 787 791 794 797 799 804 809 811 815 819 823 825 827 827 828 835 841 844 848 851 852 854 856 858
Wind_Speed
7 8 17 14 14 16 15 15 18 20 19 17 16 17 16 16 17 18 18 16 18 18 17 16 16 15 14 15 16 16 17 17 16 17 17 15 14 13 14 16 12 15 14
13 8 15 17 14 16 15 17 18 19 18 18 16 14 15 16 17 17 17 18 18 18 16 16 15 14 12 14 13 15 15 16 16 15 15 14 14 12 14 15 12 14 13
11 8 14 17 15 16 16 18 18 19 19 18 17 15 16 16 17 17 18 17 16 18 17 17 16 15 14 12 14 15 15 15 16 18 14 13 13 11 11 11 14 18 21
15 3 14 18 18 16 19 18 18 19 19 18 18 18 17 17 16 17 19 19 18 17 16 15 16 16 14 13 14 14 15 14 13 12 14 14 15 18 21 21 21 20 19
17 9 15 17 19 19 21 21 19 20 19 19 19 19 19 19 18 19 19 19 17 17 17 14 14 13 14 14 13 14 15 12 8 6 10 12 15 17 20 20 20 18 17
19 14 12 20 20 22 22 23 23 21 22 22 21 23 21 20 18 17 16 18 17 16 15 14 14 14 15 14 14 14 14 9 8 13 20 16 17 16 18 18 17 16 16
16 17 11 16 21 24 25 26 26 24 24 25 23 22 20 18 17 16 17 16 15 13 14 14 14 15 15 16 15 15 14 6 10 15 18 18 18 14 14 14 14 13 13
15 16 13 15 21 24 27 28 27 25 25 24 24 23 20 17 17 16 15 15 14 15 15 15 16 16 16 16 17 16 10 13 19 23 22 19 15 14 13 14 14 12 12
14 17 15 13 22 25 29 30 29 27 27 26 24 22 19 19 17 15 14 14 15 17 16 17 17 18 17 18 18 16 13 19 22 22 20 17 14 13 12 13 13 15 14
13 14 14 8 16 25 29 29 29 29 29 28 25 22 20 19 18 15 14 15 17 17 18 19 19 18 18 19 19 17 18 22 22 20 18 15 15 14 14 15 15 16 17
11 10 12 15 15 18 27 34 32 30 28 28 26 25 23 20 18 16 17 17 17 18 19 19 19 17 19 20 19 22 18 20 20 20 19 13 15 15 16 16 15 16 17
14 10 12 11 14 17 12 23 33 34 31 30 31 27 26 21 19 16 17 20 19 20 19 19 20 19 22 22 24 18 16 15 13 11 12 15 14 15 15 14 16 15 17
16 10 14 9 7 12 10 11 31 32 35 35 34 30 27 23 21 20 20 20 21 21 21 21 20 22 23 24 21 16 15 15 17 15 11 14 15 14 15 15 15 17 14
15 13 12 14 10 6 10 12 26 31 35 36 35 33 29 28 26 23 26 22 25 24 24 23 25 23 18 22 12 13 19 22 18 19 15 15 14 14 14 14 16 16 15
13 13 14 14 12 12 8 12 21 6 37 39 36 33 30 32 29 24 27 26 25 26 26 24 24 16 21 16 13 16 15 20 18 21 18 15 15 14 14 13 12 12 12
13 14 13 13 13 12 13 19 18 23 24 40 37 36 33 32 31 28 27 26 27 27 25 26 17 20 19 18 19 18 17 17 18 21 19 16 15 14 13 13 12 12 12
16 16 13 12 14 14 14 16 19 27 44 39 35 35 35 31 31 30 30 28 28 27 26 22 20 20 21 19 21 18 18 18 17 18 19 19 17 16 14 12 12 11 11
19 20 15 12 11 13 13 14 14 20 42 25 33 34 37 34 31 30 31 27 31 26 26 23 24 23 22 22 20 18 18 17 19 17 17 16 16 16 15 12 11 11 11
21 21 16 15 12 13 15 12 16 9 22 14 29 26 33 34 33 30 28 29 25 28 26 26 25 26 24 23 22 19 18 17 16 18 17 14 11 12 12 13 12 12 10
20 20 17 16 12 15 17 17 11 3 7 9 23 22 20 31 33 32 29 29 27 28 26 26 25 25 25 24 22 19 16 16 14 15 15 14 14 11 7 11 10 9 10
16 19 19 18 15 20 15 17 23 20 14 10 16 21 19 24 30 29 29 31 29 29 27 26 25 25 24 24 24 18 13 11 13 13 13 12 16 13 9 9 9 7 9
6 17 18 20 21 24 21 11 6 37 33 23 14 22 22 24 26 28 28 30 29 29 28 28 30 28 27 29 18 14 2 1 9 12 14 14 11 13 12 11 10 6 5
7 12 14 20 22 23 19 12 18 19 30 21 20 18 16 23 24 26 26 27 27 28 30 29 31 29 25 24 30 6 3 4 8 12 14 13 14 14 12 11 10 10 6
9 9 6 15 22 21 18 18 22 22 22 15 21 19 14 17 20 21 24 25 26 27 29 30 30 28 29 24 28 6 4 8 3 2 12 15 14 15 13 13 13 11 10
12 13 12 12 15 14 15 17 21 17 17 19 18 21 26 20 22 19 22 24 24 25 28 29 30 26 29 26 19 11 5 5 8 4 3 7 14 14 13 15 14 12 12
4 13 14 13 10 12 15 17 18 21 22 23 20 16 13 18 18 20 22 23 24 25 27 27 27 24 21 25 21 15 8 4 5 4 3 6 13 14 14 12 13 12 11
Wind_Direction
40 164 167 175 180 172 170 165 166 161 158 156 152 151 148 143 141 142 141 137 131 125 124 122 117 114 104 104 109 107 105 107 108 107 106 99 93 96 94 104 91 92 85
359 182 172 176 189 182 177 175 171 171 166 158 161 163 157 150 146 147 145 144 141 135 132 128 124 120 116 106 111 111 115 113 111 108 97 92 94 102 94 110 93 88 87
10 179 175 178 193 198 182 182 178 173 172 174 167 169 164 161 155 157 158 158 152 139 133 130 130 126 121 126 119 119 117 115 112 107 85 84 80 102 107 102 97 94 89
356 355 180 181 196 200 198 191 190 188 184 180 175 172 170 166 166 157 156 143 137 139 135 134 132 133 140 134 126 124 123 121 115 121 112 96 81 93 96 96 88 83 78
349 332 192 186 199 203 203 198 195 196 189 188 184 173 170 170 162 151 150 147 151 152 155 148 150 150 145 140 134 129 129 116 93 64 126 116 97 89 90 86 85 79 77
339 320 293 203 199 207 205 203 202 197 194 191 183 181 173 162 162 163 158 165 164 165 161 159 162 157 150 145 142 136 132 107 58 123 114 115 105 94 87 85 83 78 71
337 336 298 222 204 205 210 204 206 202 198 190 188 177 168 167 177 163 164 171 170 164 156 157 155 156 152 147 146 140 141 103 129 128 118 113 101 95 91 88 80 72 69
332 318 298 240 220 211 212 209 208 206 203 191 182 176 170 178 168 168 162 165 162 153 152 151 150 152 152 149 151 149 135 113 118 112 109 106 98 90 87 82 83 83 77
320 315 314 239 226 216 214 212 213 208 201 191 186 179 177 179 174 171 164 159 157 155 155 151 149 150 157 157 152 152 125 124 111 106 108 97 88 84 86 94 93 92 88
300 302 281 261 227 225 220 216 211 210 200 191 185 184 181 183 177 174 171 164 161 164 155 149 146 155 161 157 155 141 127 126 121 114 105 99 91 91 95 97 95 99 86
273 283 291 263 246 231 228 219 212 210 199 190 186 181 180 175 170 175 171 166 165 156 152 152 154 154 159 153 154 139 128 128 124 114 106 91 100 100 102 100 99 104 94
264 258 275 276 259 234 228 226 216 208 200 188 183 179 175 178 176 174 171 163 168 157 158 160 158 156 146 148 146 136 130 130 130 128 106 111 110 110 106 101 107 108 101
256 230 254 259 257 244 240 270 217 200 197 187 185 181 174 173 174 180 170 166 171 166 164 162 159 143 145 149 148 146 156 138 127 126 131 123 115 114 113 105 110 99 105
231 217 243 255 259 255 212 5 209 192 185 180 183 183 168 170 172 166 165 171 171 173 169 165 159 146 154 157 154 143 141 133 127 134 133 126 120 115 119 107 106 108 103
212 204 235 255 258 259 237 234 23 276 185 180 180 178 169 172 166 168 168 173 175 175 172 169 168 170 164 163 162 147 132 128 127 136 135 134 127 123 123 120 118 116 109
205 206 227 249 255 256 247 250 293 325 300 183 178 177 174 173 165 171 173 174 179 178 173 176 187 163 158 162 150 152 137 137 139 145 140 141 138 131 126 123 120 116 113
208 202 213 238 247 250 240 259 263 293 316 179 179 182 171 174 168 173 174 175 178 177 176 179 164 167 164 158 147 150 145 139 145 149 151 152 147 138 131 131 126 119 115
205 200 210 219 233 237 219 242 223 265 322 193 179 180 169 171 171 173 171 176 174 177 170 172 169 161 161 153 148 146 151 146 144 150 157 162 161 157 146 136 132 130 124
198 188 187 208 218 210 206 199 193 260 297 176 170 173 172 169 170 173 172 176 162 164 173 172 164 164 158 152 150 148 144 147 149 146 152 156 165 173 170 160 152 144 129
197 181 189 205 194 196 186 179 167 257 256 107 158 157 174 168 169 170 168 169 171 169 165 165 162 161 158 149 141 141 148 151 154 161 162 166 153 172 180 175 169 162 151
193 181 186 207 193 195 185 166 157 170 176 171 127 160 165 174 168 170 166 169 169 167 164 162 163 157 151 148 137 134 138 152 164 167 175 181 180 179 186 168 172 179 182
219 191 181 213 207 211 201 236 218 160 157 168 158 146 169 180 172 170 170 169 169 166 168 168 164 156 156 157 149 123 113 129 187 182 180 186 194 179 193 187 185 203 180
201 203 197 215 212 197 191 174 145 138 147 156 156 163 149 174 175 172 168 170 170 172 170 171 167 161 159 166 166 151 151 186 150 202 198 197 198 193 197 193 192 193 198
183 200 225 223 207 200 188 182 155 153 154 162 157 156 175 174 174 170 168 174 173 176 176 174 172 172 171 181 191 209 135 128 157 139 203 205 202 203 201 204 201 205 203
206 185 215 218 202 201 188 193 176 141 148 179 173 158 173 180 184 167 172 178 178 179 179 181 181 182 187 186 190 189 181 135 136 141 160 184 205 209 215 209 201 206 219
242 200 197 229 181 184 177 175 161 152 151 158 182 178 180 171 183 180 179 184 185 182 184 181 185 181 190 199 196 205 183 171 181 146 121 151 178 202 201 188 201 204 217